Location: Binningen
(47.7924°N, 8.7261°E)
Time: 23:03:16
(UTC+00:00)

Terra - Pass Details

Date: 17 May 2021
Orbit: 701 x 703 km, 98.2° (Epoch: 24 June)

Event Time Altitude Azimuth Distance (km) Brightness Sun altitude
Exits shadow 22:34:09 14° 241° (WSW) 1,892 3.9 -21.8°
Maximum altitude 22:36:08 18° 270° (W) 1,702 3.9 -21.9°
Drops below altitude 10° 22:39:21 10° 313° (NW) 2,180 5.1 -22.0°
Sets 22:42:20 0° 332° (NNW) 3,104 6.4 -22.1°
